Theta_e
337 334 331 333 338 339 340 340 340 340 340 339 338 335 333 334 335 334 331 330 332 332 330 328 329 331 331 333 333 333 333 333 334 334 334 335 335 335 336 336 336 336 336 335 334 333 333 333 331 332 332 330 329 329 330 331 332 331 330 327 328 328 328 329 330 330 330 330 331 331 332 332 332 331 331 330 329 329 329 331 332 333 334 335 334
338 336 331 333 338 340 340 340 341 340 339 339 338 336 334 334 334 333 330 330 331 331 330 327 328 330 331 332 332 332 332 332 333 333 333 333 334 335 335 336 336 336 335 333 331 332 333 332 331 330 328 326 327 328 328 328 327 327 329 330 330 330 329 329 328 329 329 330 330 330 330 330 331 330 331 330 330 329 328 329 331 332 332 333 332
338 338 335 336 339 339 340 340 341 340 339 339 337 336 335 335 334 332 330 330 330 330 328 326 327 329 330 331 332 332 331 332 331 331 331 331 333 332 333 335 336 335 333 332 330 330 331 330 328 326 323 322 325 327 327 325 324 324 326 328 329 329 328 327 327 328 328 328 329 329 329 330 330 330 330 330 330 329 328 328 329 330 331 331 330
338 338 336 337 339 339 340 340 340 340 340 339 337 337 336 335 333 332 330 330 331 330 327 326 328 329 329 330 332 332 331 331 330 331 330 331 332 331 332 335 335 334 331 328 327 329 330 328 326 322 320 321 324 326 325 324 324 325 325 326 327 327 326 326 327 328 328 328 328 328 329 329 329 330 330 330 329 329 328 329 329 329 329 329 329
338 337 336 337 338 339 339 340 340 339 339 338 338 337 337 335 333 331 329 329 331 330 328 327 325 327 329 330 331 331 331 330 330 330 330 331 333 332 333 335 335 333 330 328 327 329 329 328 326 322 320 322 324 325 326 326 326 326 326 326 326 326 325 324 326 327 328 328 328 329 329 329 329 329 330 329 329 328 328 329 329 329 328 328 329
338 337 336 337 338 339 339 339 339 339 338 338 338 337 336 335 332 331 329 329 330 330 328 326 323 324 328 330 331 331 331 330 330 330 330 331 331 332 334 335 334 331 330 329 329 329 329 327 326 324 322 324 325 325 326 326 326 326 327 326 326 326 325 324 324 325 327 328 328 328 328 329 329 329 329 329 328 328 328 328 329 329 329 328 328
337 338 337 337 337 338 338 338 339 338 338 337 337 336 334 333 331 330 329 330 332 331 327 325 324 323 326 328 330 331 331 331 331 330 331 330 329 331 334 334 333 331 331 330 330 329 328 326 325 325 324 324 324 325 325 325 326 326 326 326 326 325 325 325 324 322 323 325 326 326 327 327 327 328 328 328 329 328 328 328 328 328 328 328 328
337 338 337 337 337 338 337 338 338 338 338 338 336 333 331 329 330 330 329 332 333 332 328 326 323 320 325 328 330 331 331 331 330 330 330 331 331 333 334 333 332 331 331 331 331 327 326 325 324 326 325 325 325 325 326 326 325 325 325 325 325 324 324 324 325 323 323 323 324 325 326 326 326 327 327 327 328 328 328 327 327 327 326 327 328
337 337 336 337 337 338 337 337 336 337 338 338 335 330 327 327 330 331 330 331 332 333 329 326 323 319 323 328 329 331 331 330 330 329 330 331 331 332 331 331 331 332 332 331 331 326 325 325 324 327 327 325 326 326 326 326 326 325 325 325 324 324 324 325 325 326 326 325 326 326 326 326 327 327 327 328 327 326 326 326 326 326 326 327 326
339 338 337 337 338 338 337 336 333 334 337 337 333 328 326 327 330 332 329 330 332 333 331 326 322 319 321 326 329 330 331 330 329 329 330 331 329 329 330 330 330 332 333 331 328 325 324 323 324 328 327 325 325 325 326 326 326 326 326 326 326 326 326 326 326 327 327 327 327 327 327 328 328 328 328 328 327 325 325 326 326 326 327 327 326
341 340 338 338 338 337 338 336 333 331 332 334 330 326 327 328 331 332 329 330 332 332 331 326 322 318 318 324 328 330 330 330 329 329 330 331 330 330 330 331 332 332 331 328 326 326 324 323 325 328 326 325 325 325 326 326 326 326 326 326 326 326 326 327 327 327 327 328 328 328 329 329 329 328 328 327 326 325 326 325 325 325 325 325 325
341 341 339 338 337 337 338 338 335 330 327 329 327 324 326 331 333 332 332 332 333 332 330 326 322 317 314 318 325 329 330 329 329 329 329 330 330 330 330 331 331 330 329 327 326 326 325 324 326 327 325 324 325 325 326 327 326 326 325 326 327 327 327 327 327 327 328 328 329 329 329 329 329 329 328 328 327 326 325 325 325 324 322 322 322
341 341 339 338 338 337 337 338 337 331 326 324 325 324 327 333 334 333 333 333 333 331 329 326 323 319 314 313 318 325 328 329 329 328 329 329 329 329 330 330 329 328 327 327 326 325 325 325 326 325 325 324 325 325 325 326 326 326 326 326 327 327 327 327 327 327 328 328 329 329 329 329 329 329 329 328 327 327 327 326 324 321 320 320 320
341 341 339 337 337 337 337 338 337 335 331 326 324 324 326 333 334 334 334 333 333 330 328 326 324 320 315 312 312 319 326 329 328 328 328 328 329 330 330 329 328 326 325 325 325 324 324 325 325 324 324 324 324 324 325 325 325 326 327 326 326 326 327 327 327 327 328 328 329 330 329 330 329 329 329 328 327 326 325 324 322 321 319 319 319
342 341 338 337 337 336 337 337 337 337 336 331 325 324 326 332 334 335 335 333 333 331 328 326 324 321 316 312 309 314 322 327 329 328 327 327 328 329 328 327 326 325 325 325 324 323 322 324 324 324 324 324 324 323 324 324 325 326 325 326 325 325 326 327 327 327 328 328 329 329 329 329 329 328 328 327 327 325 323 322 321 321 320 319 319
341 341 338 336 336 336 336 337 337 337 337 334 328 324 325 331 334 334 335 334 333 332 330 328 326 322 318 312 308 309 317 325 328 327 327 327 327 327 326 326 325 325 325 324 323 320 320 322 322 322 323 323 323 323 323 322 323 324 324 325 325 325 325 326 327 327 328 328 328 329 329 329 328 327 326 326 325 324 324 322 320 319 320 321 319
341 340 338 336 337 336 336 337 337 337 337 335 330 326 324 329 334 334 334 334 333 332 331 330 327 324 319 314 308 306 312 321 326 326 327 326 326 326 325 325 325 325 325 323 322 318 316 319 320 320 321 323 323 322 322 322 321 321 322 323 324 324 324 325 325 326 327 327 328 328 328 328 328 327 326 326 324 322 322 321 320 318 319 320 318
341 340 338 336 336 336 336 336 336 337 336 336 332 327 323 327 332 334 334 334 333 333 332 330 328 326 322 317 310 306 308 315 322 323 324 325 325 325 325 325 325 325 324 323 323 318 314 315 316 316 319 322 322 321 321 320 320 319 320 321 321 321 322 322 323 324 325 326 326 327 327 327 327 327 327 326 324 321 320 319 319 318 318 318 316
342 340 339 337 336 336 336 336 336 336 336 336 334 328 324 325 330 333 333 333 334 333 332 331 329 327 324 320 314 309 307 310 314 317 318 319 320 321 322 323 323 323 322 320 320 320 317 314 314 315 319 321 320 320 320 320 320 319 318 318 319 319 320 320 320 321 323 325 325 325 326 326 326 326 326 325 324 323 320 318 318 317 317 317 316
342 340 340 339 337 336 336 336 336 336 336 336 335 331 325 326 329 331 333 333 333 333 332 331 329 328 326 323 317 313 309 306 307 308 311 312 313 313 315 318 319 318 318 317 318 321 318 313 313 314 318 320 319 320 320 320 321 320 319 318 317 318 319 319 319 319 320 323 324 324 324 325 325 325 324 323 322 321 319 317 317 317 317 317 316
342 341 341 340 339 337 336 336 336 336 336 336 336 334 329 327 329 330 332 333 333 333 332 332 330 328 327 325 321 316 312 309 306 306 307 308 308 307 308 312 314 313 315 317 317 319 317 315 314 313 316 319 319 320 321 320 320 320 320 319 318 319 320 320 320 320 319 321 322 323 323 323 323 323 323 322 320 318 318 318 317 317 317 316 315
341 341 341 341 340 338 338 337 336 336 336 336 336 336 333 330 329 330 331 332 332 332 332 332 330 329 328 326 323 320 317 314 310 307 304 304 304 303 303 305 306 309 313 314 314 316 316 316 315 313 315 318 319 319 320 320 320 320 320 320 320 321 321 321 321 322 321 321 321 321 321 322 322 322 322 320 319 317 317 317 316 317 316 315 315
341 341 341 341 341 339 339 339 338 336 336 337 336 336 335 332 330 329 330 331 331 332 332 332 331 330 328 327 325 323 320 318 315 312 307 303 302 302 302 301 302 304 306 308 311 314 316 315 314 313 313 314 317 318 319 320 320 320 320 320 321 321 321 321 321 322 322 322 322 322 322 322 322 322 321 320 319 318 317 316 316 316 315 315 315
340 341 341 341 341 341 340 340 339 337 336 337 337 337 336 334 332 330 330 331 331 332 332 332 331 330 329 328 326 325 323 321 318 317 312 306 305 304 303 303 303 304 304 306 308 310 311 311 312 311 310 310 315 318 318 319 319 320 320 320 320 321 321 321 322 322 322 323 323 323 323 323 323 322 321 320 319 318 317 316 316 315 314 314 313
340 340 341 340 340 341 340 340 340 338 338 338 338 338 337 336 334 332 331 331 332 332 332 331 331 330 329 328 328 328 326 323 321 319 314 309 307 306 305 305 306 309 310 309 307 306 307 307 308 307 307 308 312 317 318 319 319 319 320 320 321 321 321 321 322 322 323 323 323 323 323 323 322 321 320 319 318 317 317 316 316 315 314 313 312
339 339 340 340 340 340 340 340 340 339 339 339 338 338 338 337 335 335 333 332 331 332 332 332 332 331 329 329 328 329 328 326 322 321 316 310 309 307 306 307 310 312 313 313 310 308 308 307 306 306 306 308 312 317 318 318 318 319 320 320 321 321 321 321 322 322 322 322 323 323 323 323 322 321 320 318 317 316 316 315 314 314 313 313 312
338 338 338 340 340 340 339 339 340 340 340 339 339 338 338 337 336 336 335 334 333 332 332 332 332 331 330 330 329 329 329 327 323 322 318 311 310 310 309 309 312 314 313 314 313 311 312 311 309 308 308 310 313 317 318 318 318 319 319 320 320 320 321 321 322 322 322 322 323 323 322 322 321 321 320 319 317 317 316 315 314 312 311 311 311
336 336 337 338 339 339 338 339 340 339 340 339 338 338 337 338 337 336 336 335 334 333 332 332 332 332 331 332 331 330 329 329 325 323 319 312 311 312 312 312 314 314 312 312 312 311 313 312 311 310 309 312 315 316 317 317 317 318 319 319 320 320 320 321 321 321 322 322 322 322 322 321 321 320 319 319 318 317 316 314 313 313 312 311 310
334 335 336 336 337 338 338 338 339 340 339 339 338 338 338 338 337 336 336 336 336 335 334 333 332 332 332 332 332 331 329 329 327 324 321 315 311 312 313 314 315 315 312 311 312 313 313 312 311 311 311 312 315 315 316 316 316 317 317 318 319 319 320 320 321 321 321 322 321 321 321 321 320 320 319 319 318 316 315 313 313 313 312 311 309
333 334 335 335 336 336 337 337 338 339 339 339 339 338 338 338 338 337 337 337 336 336 335 334 333 332 332 332 332 331 330 329 328 325 322 317 314 313 314 315 315 315 314 313 315 315 314 313 313 313 313 313 314 314 315 315 314 315 316 317 318 318 319 319 319 319 319 319 319 319 319 319 318 318 318 317 316 315 314 314 313 313 311 310 309
333 333 334 334 335 335 335 336 337 338 338 338 338 337 338 337 337 337 337 337 336 336 335 335 334 333 332 333 332 332 331 330 328 327 324 319 316 316 315 315 315 315 315 316 315 315 315 315 314 314 314 314 313 312 313 314 314 314 314 315 317 317 318 318 318 318 318 317 317 316 316 316 316 315 315 315 314 313 314 314 313 312 311 310 309
334 334 334 334 334 334 333 335 336 337 337 338 338 337 336 336 337 337 337 337 336 336 336 335 335 334 333 333 333 332 331 330 328 327 325 321 318 318 316 316 317 316 316 316 315 315 315 315 314 313 313 313 313 311 311 312 313 313 313 314 315 316 317 317 316 316 316 316 315 315 315 314 313 313 312 312 312 311 312 312 312 311 311 310 309
334 334 334 334 334 334 332 333 335 336 336 337 337 336 335 335 335 336 336 336 336 336 336 335 335 335 334 333 333 332 332 330 329 328 327 323 321 321 319 317 318 317 316 315 315 314 315 314 313 312 312 313 312 310 309 310 311 312 312 312 314 315 315 315 314 314 314 314 313 313 313 312 311 311 311 310 310 310 310 310 310 310 309 309 308
333 334 334 334 333 333 332 332 334 335 335 336 336 336 335 334 334 334 335 335 335 335 335 335 335 335 334 334 333 333 332 331 330 328 327 326 323 322 322 320 319 317 315 315 315 314 315 314 312 312 311 312 312 309 308 309 309 310 310 311 311 312 313 313 312 312 312 312 310 309 308 309 309 309 309 309 309 309 309 309 309 308 308 308 307
332 333 334 333 333 333 333 332 333 334 334 335 335 334 334 333 332 332 332 334 334 334 334 335 335 335 334 334 333 333 333 331 331 329 328 327 324 323 322 321 320 318 316 316 315 314 314 314 313 312 311 310 310 308 306 307 307 309 309 309 309 310 310 311 310 309 309 308 306 304 304 305 305 306 306 307 307 308 309 308 308 308 307 307 306
332 333 333 333 333 332 332 333 332 332 333 334 334 333 332 331 331 331 330 330 332 332 333 334 334 334 334 334 334 333 333 332 332 330 329 328 327 325 323 321 320 318 317 316 316 314 314 313 312 312 311 309 308 305 304 304 305 306 307 307 307 307 307 307 305 305 304 302 301 301 301 302 302 303 304 304 305 305 305 306 307 307 307 306 306
332 333 333 333 333 332 332 332 332 332 332 332 332 332 332 331 331 331 330 329 329 330 331 334 334 334 334 334 334 333 332 332 332 331 330 329 328 327 325 322 320 319 318 317 316 315 313 312 310 310 312 310 307 304 301 301 302 303 304 305 304 303 303 302 300 299 298 297 297 297 297 297 298 299 299 299 299 300 301 302 303 304 305 306 306
330 332 333 333 333 333 332 331 332 332 331 331 331 332 331 331 331 330 330 330 329 329 329 331 333 333 333 333 334 333 332 332 333 332 331 330 329 328 326 323 320 320 319 317 316 315 313 312 310 308 309 310 308 304 300 298 299 299 300 301 301 299 298 297 296 295 295 294 294 294 293 293 293 293 293 293 294 294 296 297 298 298 301 304 305
327 330 332 333 333 332 332 331 331 331 331 330 330 331 331 331 331 331 330 329 329 329 328 328 330 332 333 332 333 333 332 332 333 332 331 331 330 329 328 325 322 321 319 317 316 315 312 310 310 307 305 306 307 304 299 296 295 295 295 296 296 295 294 293 293 293 292 292 292 292 291 291 291 290 290 290 290 290 291 292 294 295 297 301 303
327 328 330 332 332 332 331 331 330 330 330 330 330 331 331 330 331 330 329 328 328 328 328 328 328 330 332 332 332 332 333 333 332 332 331 332 331 329 328 326 324 322 319 317 315 314 313 310 309 308 305 303 302 301 299 296 294 294 293 293 293 293 292 292 292 292 291 291 291 291 291 290 290 290 290 290 289 289 289 289 291 292 294 296 297
327 328 330 330 331 331 331 330 330 329 329 329 329 329 330 330 330 329 328 327 327 326 327 327 327 328 330 331 332 332 332 332 332 332 331 332 331 330 329 327 325 323 320 319 318 316 314 312 309 307 305 303 299 297 297 296 294 293 293 292 292 292 292 292 292 291 291 291 290 290 290 290 290 290 289 289 289 289 289 289 289 289 290 290 290
326 327 329 329 329 330 330 330 329 329 329 328 328 328 329 328 328 328 328 327 326 326 326 327 327 327 328 329 331 331 331 331 331 331 332 332 332 331 330 328 326 324 321 319 319 318 315 313 309 304 303 302 299 296 296 296 295 293 292 291 291 291 291 291 292 291 291 290 290 290 290 290 289 289 289 289 289 289 288 288 288 288 288 288 288
324 325 327 327 329 328 328 329 328 329 328 328 328 327 328 327 327 327 327 327 326 326 325 325 326 327 327 327 328 329 330 330 330 331 331 331 332 331 330 329 327 325 322 318 316 315 313 311 310 307 303 301 299 297 296 298 297 293 292 293 292 291 291 290 291 291 291 290 290 289 289 289 289 289 289 288 288 288 288 288 288 288 288 288 288
321 323 324 326 327 327 327 327 327 328 328 328 327 327 327 327 327 326 326 326 325 325 325 324 325 325 326 326 326 326 326 328 330 331 331 331 331 330 330 330 328 325 323 320 317 314 312 310 308 308 304 300 298 297 297 298 299 296 293 293 292 292 294 291 289 290 290 290 290 289 289 289 289 288 288 288 288 288 288 288 287 287 287 287 287
319 321 322 323 324 325 325 325 326 327 327 327 327 326 326 325 325 324 323 323 323 323 323 323 323 323 324 325 325 325 323 325 327 327 328 330 331 330 330 330 329 327 324 322 322 318 314 312 309 307 305 304 300 297 296 297 300 301 298 296 293 294 296 292 289 290 289 289 290 289 289 289 288 288 288 288 288 288 287 287 287 287 287 287 287
316 318 319 321 322 322 323 324 324 325 325 325 325 324 324 323 323 322 321 320 320 320 320 321 322 322 323 323 324 323 322 323 324 325 326 326 329 330 330 330 329 328 325 324 323 319 316 314 312 309 307 308 305 300 297 297 299 300 300 300 299 299 298 292 290 291 289 288 289 289 289 289 288 288 288 288 288 287 287 287 287 287 287 287 287
315 316 317 318 319 320 320 321 321 322 323 323 323 323 322 322 321 321 320 319 318 319 319 319 320 320 321 321 322 322 321 321 322 324 326 326 326 328 330 331 329 328 327 325 322 319 318 316 313 312 310 308 307 304 300 299 298 298 300 301 300 302 301 295 292 293 291 289 288 289 289 289 288 288 288 288 288 287 287 287 287 286 286 287 286
314 314 315 316 317 317 317 318 319 320 321 321 322 321 321 321 320 320 319 319 318 318 318 318 318 318 319 319 320 320 320 320 320 321 324 326 327 328 329 330 329 329 328 326 322 320 319 317 313 311 309 307 307 307 304 300 298 300 300 299 299 301 301 299 297 296 294 291 289 288 289 289 289 288 288 288 288 288 287 287 287 286 286 286 286
314 313 313 314 314 315 315 316 317 318 319 320 320 320 320 320 319 319 319 318 318 317 317 317 317 317 317 318 318 319 320 319 319 320 324 326 326 327 328 328 328 328 328 326 323 322 322 318 313 309 308 307 308 308 307 304 302 303 301 297 299 300 297 296 297 295 294 294 292 289 288 289 289 289 289 288 289 288 287 287 287 286 286 286 286
314 313 313 313 313 313 314 315 316 317 318 319 319 319 319 319 318 318 318 318 317 317 317 316 316 316 316 317 318 318 318 318 318 319 322 325 325 326 327 327 328 327 327 327 325 325 322 318 314 312 311 310 309 308 307 307 305 305 303 298 298 299 296 294 294 294 293 294 294 290 288 289 289 289 289 289 289 288 287 286 286 286 286 286 286
314 313 313 312 312 313 314 314 315 316 317 318 318 318 318 318 318 318 317 317 317 316 316 315 315 316 316 316 316 316 316 316 317 317 318 321 323 326 327 327 327 326 326 326 325 325 322 318 316 315 313 312 310 308 307 306 304 303 301 299 298 299 299 297 295 295 293 292 293 291 288 288 288 288 289 289 289 288 288 287 286 286 286 286 286
Wind_Speed
13 13 13 12 12 10 10 11 12 11 13 13 15 16 16 17 16 15 15 15 15 15 15 16 17 17 17 17 17 17 17 17 17 17 18 18 18 18 16 15 16 16 18 20 19 20 20 20 21 21 21 23 24 26 28 27 26 26 27 28 29 29 29 29 29 29 28 27 27 26 27 27 27 27 27 27 28 28 28 27 28 30 29 28 29
17 16 14 14 13 11 11 11 12 11 12 13 15 16 15 16 15 14 14 14 15 15 15 15 17 17 17 17 17 17 17 17 17 17 17 18 17 16 15 14 15 16 17 18 19 20 19 19 20 21 22 23 25 27 28 28 28 28 28 28 28 28 28 29 30 30 30 29 28 28 28 27 27 27 27 28 29 29 28 27 27 29 28 26 27
19 17 16 15 14 13 11 12 12 11 12 14 16 15 15 15 14 14 14 14 15 14 14 15 17 17 17 17 17 17 17 17 17 17 17 17 16 14 14 15 15 15 16 17 17 19 18 18 20 21 22 24 25 27 27 28 28 28 28 27 27 27 27 28 30 31 30 30 29 29 29 28 27 27 27 28 28 29 29 28 28 29 28 27 27
19 18 17 16 15 14 12 13 13 12 13 14 16 15 14 14 13 13 13 14 15 14 14 15 16 16 17 17 17 17 17 17 17 17 17 17 15 13 14 15 16 16 15 16 17 19 19 18 19 22 24 25 26 27 27 28 29 28 28 28 27 26 26 27 29 30 30 30 29 30 30 29 28 27 27 27 28 28 29 29 29 29 29 28 28
20 18 17 16 15 15 14 14 14 13 14 14 15 14 13 13 12 12 13 13 14 14 14 15 15 16 17 18 18 17 17 17 17 17 16 17 15 14 15 16 18 18 17 17 18 19 20 19 20 23 26 27 28 28 28 28 27 26 25 26 27 27 27 27 28 28 30 30 29 30 30 29 28 27 26 27 27 28 29 29 29 29 29 29 29
20 18 18 17 15 15 14 14 15 15 15 15 14 12 12 11 11 12 12 13 14 14 14 14 15 16 17 18 18 17 17 17 17 16 17 16 13 13 16 18 19 19 18 18 19 20 19 19 21 24 26 28 28 29 29 28 26 25 24 25 27 27 27 27 27 27 28 29 30 31 30 29 28 27 26 27 27 28 28 28 28 28 28 29 29
19 19 17 18 17 16 15 15 15 15 14 14 13 11 10 11 11 11 12 13 14 13 13 14 15 16 17 18 18 17 17 17 17 16 17 16 12 13 16 18 19 19 19 19 18 19 19 20 22 24 27 28 28 28 28 27 25 25 26 24 24 25 25 26 27 27 27 28 30 30 29 28 28 27 25 26 27 27 27 27 27 27 28 29 29
19 18 17 18 17 16 15 15 14 14 13 13 12 11 10 10 11 11 11 13 13 12 13 15 15 16 17 17 18 17 17 17 17 16 17 16 15 15 17 17 18 18 18 19 18 18 19 20 22 24 26 28 27 26 25 25 26 25 25 23 22 24 25 25 25 26 28 29 30 30 29 28 27 26 25 25 25 25 26 27 28 28 29 28 29
20 17 17 17 16 15 14 14 14 13 13 12 12 11 11 10 12 12 11 12 12 12 12 14 15 16 16 17 17 17 17 17 17 17 17 16 16 16 17 17 16 17 18 19 17 16 18 20 22 22 23 25 25 25 24 23 24 25 25 25 24 25 25 25 25 25 27 29 29 29 28 28 27 26 25 26 26 26 28 29 29 29 29 28 28
19 17 17 16 15 15 14 14 13 13 13 12 12 12 11 11 13 12 11 12 12 12 12 13 15 15 16 17 17 17 16 16 16 17 16 15 15 15 17 16 16 17 18 17 15 16 18 20 22 21 22 24 24 25 24 23 24 24 25 24 24 24 24 24 24 25 26 26 27 26 26 27 26 25 25 26 27 27 28 27 27 28 28 27 26
17 17 16 16 16 15 15 14 13 13 12 12 12 12 11 12 13 12 11 11 11 11 11 12 14 15 15 16 17 17 16 16 16 16 16 16 16 17 17 16 16 16 16 16 15 17 18 20 21 20 22 25 24 24 24 24 25 24 23 22 22 22 21 21 23 23 23 23 24 25 25 25 24 25 25 26 27 26 25 25 25 25 25 26 25
17 16 16 16 16 15 15 14 14 13 12 12 12 12 12 13 13 12 11 11 11 10 10 11 12 13 14 15 17 17 16 16 16 16 15 15 16 17 16 15 15 16 16 16 16 17 18 20 20 20 23 24 23 23 24 24 23 22 20 20 21 21 20 21 22 23 23 23 23 24 24 23 24 24 25 25 25 26 25 24 24 24 24 25 24
18 16 17 17 16 16 16 14 14 13 12 13 12 13 13 14 13 12 11 11 11 10 9 10 11 12 13 14 15 17 17 16 16 15 15 15 16 15 15 15 16 16 16 17 17 18 18 20 19 20 23 24 23 22 22 22 21 21 20 20 20 19 19 20 21 22 23 23 23 23 23 24 24 24 24 25 25 25 25 25 25 24 24 24 24
18 16 17 17 17 17 16 15 14 13 13 12 12 13 14 14 13 12 11 11 11 9 9 9 10 11 12 13 14 16 18 17 16 15 15 15 16 15 15 16 16 16 16 17 17 17 18 19 19 22 24 23 22 21 20 20 20 21 21 20 20 20 20 20 20 21 22 22 23 23 24 24 24 23 24 25 25 24 24 25 24 24 24 24 26
17 16 18 18 18 18 16 16 15 14 13 12 12 12 14 14 13 12 11 11 10 9 9 9 9 10 12 13 13 15 17 18 16 14 14 14 15 14 15 16 16 17 17 17 17 17 18 18 19 23 23 22 21 19 18 19 19 20 20 19 20 21 22 22 21 22 23 24 24 24 24 23 23 23 23 24 24 23 23 24 23 23 24 24 26
17 16 19 20 19 18 17 17 16 15 13 12 12 12 14 14 13 11 11 11 10 9 9 9 10 10 11 12 13 14 16 17 16 15 15 15 14 14 15 16 17 16 15 16 16 18 18 18 21 22 21 20 19 18 19 19 20 20 19 19 19 20 21 23 24 23 24 24 24 24 24 23 22 22 23 23 23 23 23 22 22 23 24 24 25
17 16 19 20 20 19 18 17 17 16 14 13 12 12 14 14 13 11 11 11 10 9 9 9 9 9 10 11 12 13 14 16 15 15 15 16 15 15 15 16 16 15 15 16 16 18 18 19 21 20 18 18 17 17 18 19 20 20 20 20 19 19 20 22 24 24 24 24 24 24 24 23 22 22 23 23 22 23 23 23 23 23 23 23 23
16 16 19 20 20 19 18 18 18 17 15 14 13 13 14 15 14 12 12 11 11 10 9 9 9 9 9 10 11 12 13 14 14 14 14 16 16 16 16 16 16 15 16 16 16 17 18 19 19 18 18 19 18 18 18 18 18 19 19 19 19 19 20 21 23 23 23 23 23 24 24 23 22 23 24 23 22 22 23 24 24 23 23 22 21
16 16 18 20 21 19 19 19 18 18 17 16 14 14 14 15 14 13 12 12 12 11 9 9 9 9 9 9 10 11 12 12 13 13 14 15 15 15 15 15 15 15 15 16 17 16 17 18 18 18 20 20 20 19 19 18 18 18 18 18 19 19 20 21 21 21 22 22 22 23 23 22 23 23 23 23 22 22 21 23 24 24 23 23 22
17 16 16 18 20 20 20 19 19 18 17 17 15 15 15 15 15 14 14 13 13 11 10 9 9 9 8 9 10 11 11 11 12 12 13 13 13 14 14 14 14 14 14 15 16 15 16 18 17 18 21 21 20 20 19 19 19 19 18 18 18 19 19 20 20 19 20 22 21 21 21 21 22 22 22 22 22 22 22 23 24 24 23 23 23
19 18 17 16 19 20 20 19 19 19 18 17 16 16 16 16 16 16 15 14 13 12 11 10 10 9 9 9 10 10 11 11 11 11 12 12 12 12 13 13 13 13 13 14 15 15 16 17 16 18 21 20 19 19 19 19 19 19 18 18 18 19 20 20 20 20 20 21 20 19 20 20 20 20 21 22 23 23 24 24 23 22 22 22 23
22 20 18 17 19 20 20 19 20 19 18 18 17 17 17 17 17 17 17 16 15 13 13 12 11 10 10 9 10 10 11 11 11 11 11 11 11 11 12 12 13 13 13 14 15 16 17 16 15 17 19 19 18 18 17 17 17 17 17 16 18 19 20 20 21 21 21 21 19 18 19 20 20 21 22 23 23 23 23 23 22 22 22 22 22
22 22 22 20 20 21 20 19 20 20 19 18 18 18 18 18 18 18 18 17 16 14 14 13 12 12 11 10 11 11 11 11 11 11 11 12 12 12 12 12 13 13 14 15 16 17 16 15 15 16 17 17 17 17 16 15 15 15 15 16 18 19 19 19 20 21 22 22 20 18 20 21 21 22 22 22 22 22 22 21 21 21 21 21 21
24 23 23 21 21 22 21 20 20 21 21 20 19 19 19 19 19 19 19 18 17 16 15 14 13 13 13 12 12 12 11 11 12 12 12 13 14 14 14 14 14 15 15 16 17 17 17 16 16 15 16 16 16 16 15 15 14 14 15 16 18 18 18 18 19 20 21 22 21 19 20 21 21 22 21 20 21 21 20 20 20 20 20 21 20
26 23 23 23 23 22 22 21 21 22 22 21 21 20 20 21 20 20 19 19 19 18 17 16 15 15 15 13 13 13 12 12 13 13 13 14 15 15 15 16 16 16 16 16 17 18 17 17 17 16 15 15 16 17 16 15 15 15 16 17 17 17 18 18 18 20 21 22 21 20 19 19 20 21 21 20 20 20 19 20 20 20 20 20 20
25 26 26 25 24 23 23 23 22 23 23 23 23 22 22 22 22 22 21 21 20 20 19 18 18 18 18 16 15 14 13 13 13 14 15 16 17 17 17 17 17 18 18 17 18 18 17 17 17 16 15 14 16 17 17 16 15 16 17 17 17 17 17 17 18 19 20 20 20 19 18 17 18 20 20 20 20 19 19 19 19 19 20 20 19
26 28 28 27 26 25 24 24 23 24 24 24 23 23 23 24 24 23 23 22 22 21 20 20 20 20 20 18 18 18 16 14 15 15 16 17 18 18 18 18 18 19 19 18 18 18 17 16 16 16 16 16 16 18 18 17 16 16 17 17 16 16 17 16 16 17 18 19 19 18 17 16 17 18 19 21 21 20 20 20 19 18 18 18 18
26 27 28 29 29 27 25 25 24 24 25 25 24 24 24 25 25 24 24 24 24 23 22 21 20 21 21 20 19 19 18 16 16 16 17 18 19 19 19 19 19 19 19 19 18 18 17 16 17 17 18 18 17 18 19 18 17 17 18 18 17 17 17 17 16 17 18 19 20 19 17 16 16 16 18 20 20 20 20 19 19 19 19 18 18
27 27 28 29 31 30 27 27 26 25 26 26 25 25 24 25 26 26 25 25 25 24 23 22 21 22 23 22 20 20 20 18 17 17 18 19 19 20 20 20 20 19 20 19 18 17 17 17 17 17 18 18 18 18 18 18 18 17 18 19 19 18 18 18 18 19 20 20 21 21 20 19 17 16 17 18 18 17 17 16 17 18 18 17 17
31 30 29 30 31 32 30 29 28 27 27 27 27 26 25 26 26 26 26 25 25 25 24 24 24 23 24 24 22 21 21 20 18 18 19 20 20 20 21 21 21 21 21 19 17 16 16 16 16 17 18 18 17 17 18 18 18 17 18 19 20 19 19 19 19 19 21 21 22 22 22 22 21 18 16 16 17 15 15 16 16 17 17 16 16
31 32 32 32 31 32 33 32 29 28 29 29 28 28 26 27 26 25 25 25 26 25 25 26 26 25 25 26 24 23 22 22 20 19 20 21 21 21 22 22 22 22 21 19 17 16 16 16 16 17 17 17 17 17 17 18 18 18 18 19 21 20 20 20 19 18 19 20 21 21 22 23 23 21 17 14 14 14 15 15 15 16 16 15 15
32 34 34 32 32 31 33 34 32 30 30 30 30 30 29 28 27 26 25 25 26 26 26 26 27 27 27 27 26 26 25 24 22 21 21 22 23 22 22 23 24 23 21 19 18 17 16 17 17 18 17 17 17 17 17 17 18 19 19 20 21 22 21 20 19 18 18 18 19 19 19 20 21 21 19 15 13 12 13 13 13 13 14 14 14
34 34 32 32 32 31 31 35 35 33 32 32 32 31 31 29 28 28 26 25 25 26 27 27 28 28 28 28 28 28 27 26 25 23 22 24 24 23 23 24 24 23 21 21 20 19 19 19 19 19 18 18 18 18 17 18 19 19 20 20 21 22 22 21 19 19 18 17 17 16 16 16 17 18 20 18 14 12 12 12 12 12 12 12 12
34 33 33 32 33 31 30 33 36 36 34 33 33 32 31 30 30 29 28 27 26 26 26 27 28 28 29 30 30 29 29 29 27 26 25 25 26 25 24 25 24 23 23 23 22 22 22 23 22 21 20 19 18 19 19 19 20 20 20 20 21 22 22 21 19 18 18 16 15 14 14 14 15 16 18 19 18 15 13 12 12 12 11 11 11
34 33 34 34 33 32 31 32 36 38 36 34 33 33 32 31 30 30 30 29 28 27 26 27 28 28 29 29 31 31 31 31 30 29 28 28 28 29 28 26 26 25 25 25 25 25 26 25 24 23 21 20 19 19 19 20 21 21 20 20 20 20 21 20 19 18 17 16 15 14 14 14 14 14 14 16 17 17 16 14 13 11 11 11 10
36 35 35 34 34 34 33 33 34 38 38 36 34 33 33 31 30 30 29 29 30 29 28 28 28 28 29 29 30 31 31 32 31 31 30 31 31 31 30 29 28 27 27 27 27 27 28 27 26 25 24 22 20 20 20 20 22 22 20 20 19 20 20 19 18 18 17 16 15 15 15 14 13 12 13 13 14 15 16 16 16 14 12 10 9
37 37 35 35 36 35 35 35 35 37 39 38 36 33 32 32 30 30 28 28 28 29 29 29 28 28 29 29 30 31 31 32 33 33 32 32 33 33 32 31 30 29 29 29 29 29 30 29 27 26 25 23 23 22 21 21 22 22 21 20 19 18 19 18 17 17 16 15 15 15 14 13 13 12 12 11 11 11 12 14 15 15 14 12 10
37 38 37 37 37 37 37 37 37 37 38 39 37 34 33 32 30 29 29 28 28 27 28 29 30 29 28 29 29 30 31 31 33 34 32 32 34 35 34 34 33 31 31 31 31 31 32 31 29 28 26 24 25 24 23 23 22 22 20 19 19 18 17 17 17 16 15 14 14 13 12 12 12 12 11 11 11 11 11 11 11 12 13 14 12
37 38 38 36 36 37 37 38 38 38 38 38 38 35 33 32 31 30 28 29 28 28 28 30 31 31 30 29 29 29 30 31 33 33 33 33 34 36 36 36 35 34 33 33 32 33 33 31 30 29 27 25 25 26 25 24 23 21 20 19 17 18 17 16 15 14 14 14 13 13 12 12 11 11 11 11 11 11 11 11 10 11 12 13 13
36 37 38 36 36 36 37 38 38 38 38 37 37 37 35 33 32 31 30 31 31 30 30 30 31 32 32 31 30 29 29 31 32 33 33 34 34 36 37 37 37 36 36 35 34 35 35 34 32 31 30 26 25 26 27 27 24 20 18 18 16 15 15 15 14 13 13 13 13 13 13 12 11 11 11 10 10 10 11 11 11 11 11 11 11
34 36 37 38 38 38 37 38 38 38 38 38 39 39 39 37 35 35 35 34 33 32 32 32 32 33 34 33 32 31 30 30 31 33 34 35 36 36 37 38 39 38 37 37 36 36 36 36 34 32 32 29 28 28 30 30 26 19 15 14 14 13 12 13 13 13 13 14 14 14 14 13 12 12 12 11 11 11 11 11 11 11 11 11 11
35 37 38 39 39 38 38 39 38 38 39 40 40 41 42 41 40 40 38 36 35 34 33 33 33 34 34 35 34 32 31 31 31 33 35 36 36 36 37 39 40 39 38 37 38 38 38 38 36 32 30 30 30 31 33 30 24 20 18 13 8 8 10 10 11 12 14 15 15 15 15 14 14 13 13 12 11 11 11 10 10 10 10 10 10
36 37 37 38 38 38 38 39 39 40 40 40 40 41 41 41 40 38 37 36 35 35 34 32 32 32 34 35 35 35 34 33 33 34 35 36 36 36 37 39 40 40 39 38 37 38 39 39 39 36 32 30 29 32 35 30 23 22 19 9 5 5 5 8 11 13 16 16 16 16 16 15 15 14 13 13 12 12 11 10 10 10 10 10 10
32 33 33 33 35 37 38 38 38 39 39 39 39 39 38 37 36 34 32 33 33 33 33 32 31 32 33 34 36 36 35 35 34 34 35 37 38 38 39 40 40 40 41 40 38 38 39 39 39 38 36 32 28 32 37 31 26 24 14 4 3 5 2 9 15 15 16 16 16 17 17 17 16 15 15 14 13 12 12 11 10 10 10 9 9
31 33 34 34 35 36 36 36 36 36 37 36 36 36 34 32 32 29 26 27 28 29 31 33 33 33 34 35 36 37 36 35 36 36 36 38 39 39 40 41 40 40 41 41 40 41 41 41 40 39 39 37 32 32 35 33 30 29 20 8 5 3 3 9 14 12 15 18 17 17 17 18 18 17 17 16 15 14 13 12 11 11 10 10 9
32 33 34 34 34 34 34 34 34 34 35 35 34 34 33 32 31 29 27 26 27 29 33 36 37 36 36 36 35 36 36 35 35 36 37 39 40 40 40 40 40 42 43 41 40 42 43 43 42 42 42 41 37 33 36 37 33 30 26 16 9 7 6 13 11 4 11 17 17 18 18 19 19 18 18 18 16 16 14 13 13 12 11 10 10
31 32 31 31 32 32 32 33 33 33 34 34 34 34 34 33 33 33 32 31 30 32 34 35 35 36 36 35 34 34 35 36 36 36 36 39 42 42 42 41 41 42 42 40 41 43 44 44 44 45 44 43 40 37 38 39 34 32 32 23 14 12 12 16 11 4 5 10 15 18 19 19 19 20 20 20 18 17 16 15 14 13 13 11 10
29 28 28 29 30 30 31 31 32 32 32 33 33 34 35 35 35 34 34 34 34 34 33 32 32 32 33 34 34 34 34 35 37 37 36 38 41 42 40 40 42 42 41 42 43 43 43 43 43 45 44 42 42 40 39 39 37 36 36 28 18 14 16 18 19 15 7 3 9 14 18 19 20 21 21 21 19 18 17 17 16 15 14 13 12
26 26 27 27 28 29 29 29 30 31 31 32 33 34 35 36 35 35 35 35 35 33 31 29 29 29 30 32 33 33 34 35 36 38 37 36 40 44 42 39 41 42 41 41 42 41 41 43 44 44 42 42 43 42 39 40 42 40 37 32 21 15 16 15 19 20 9 5 6 7 14 18 18 22 23 21 20 19 18 17 17 16 15 14 13
23 23 24 25 26 27 28 29 30 31 31 32 33 34 35 35 36 36 36 35 34 31 29 28 28 28 30 31 32 33 34 35 36 39 39 35 35 42 44 42 42 42 42 42 42 42 43 44 45 45 45 44 43 42 41 40 44 42 37 34 27 20 18 13 17 21 12 7 6 7 17 20 16 21 24 23 22 20 19 18 18 18 17 16 15
20 21 22 23 25 26 28 29 29 30 31 31 32 33 34 35 37 37 37 36 34 32 30 30 29 29 31 32 33 34 34 35 36 37 41 40 35 37 40 41 42 42 42 42 42 43 44 44 45 46 46 45 43 43 42 39 40 39 35 34 34 30 25 20 23 26 17 10 7 7 18 22 17 20 24 24 23 20 20 19 19 19 18 17 16
Wind_Direction
156 150 149 139 130 123 120 123 121 118 114 109 107 104 100 94 87 84 79 72 71 65 60 70 78 78 84 88 87 88 88 88 88 87 87 88 89 89 85 82 87 88 86 84 84 86 85 84 85 82 83 85 87 90 89 85 84 84 80 79 79 78 79 80 81 82 82 82 81 81 78 77 75 74 72 71 72 73 74 73 72 71 68 69 69
154 153 152 142 132 126 124 126 122 118 115 108 105 105 99 94 90 86 78 72 72 69 63 69 78 80 83 86 89 90 91 92 91 88 86 88 87 91 94 87 88 88 84 82 83 84 85 87 86 85 87 91 93 92 90 88 87 85 84 82 82 81 80 81 84 85 84 83 83 82 80 78 77 76 75 74 73 72 73 73 73 73 71 71 71
153 157 157 145 136 132 130 128 125 121 115 107 105 103 98 95 92 86 79 74 73 72 68 71 78 81 84 86 89 91 94 95 94 91 91 92 91 95 98 87 83 83 81 82 83 85 84 87 88 89 92 94 96 95 93 90 87 85 85 84 84 84 83 84 87 87 86 85 84 83 81 80 80 79 78 77 75 75 75 74 74 74 73 72 73
157 158 157 149 140 135 132 132 129 125 117 109 106 102 99 98 95 88 81 76 75 73 70 74 80 83 85 87 89 92 95 97 97 95 95 94 95 96 96 92 88 84 81 82 83 84 83 84 87 92 94 96 99 98 95 92 88 85 84 84 84 84 84 87 89 89 89 88 86 85 83 82 82 80 80 78 76 76 76 76 75 75 74 73 73
158 156 156 152 144 138 134 132 128 125 119 113 107 104 104 102 98 91 82 79 80 76 71 74 80 85 86 88 90 93 96 97 98 96 97 96 96 95 96 96 90 85 82 82 83 84 83 83 86 92 96 99 100 98 96 94 91 90 90 89 86 84 82 85 89 90 90 89 89 87 85 84 82 80 79 79 78 78 78 77 77 76 75 74 74
157 155 156 153 147 139 136 132 127 125 121 116 111 111 111 106 102 93 87 83 81 79 77 78 78 84 88 91 93 94 96 98 99 97 98 99 100 95 92 90 86 83 82 81 83 84 84 85 87 92 98 101 100 99 98 95 91 90 91 93 90 87 82 81 85 88 91 91 89 89 87 84 83 81 80 80 80 79 79 77 77 77 76 74 74
156 154 155 154 148 140 137 134 131 129 125 119 118 121 117 112 108 98 93 87 85 81 80 83 80 84 89 93 96 96 98 98 99 100 100 99 100 95 89 87 84 83 84 84 85 86 87 89 91 95 101 102 101 100 98 94 90 89 91 94 93 89 85 83 83 83 87 89 88 87 86 84 84 82 81 82 80 79 80 79 80 82 82 80 78
155 155 154 153 149 142 139 137 136 134 130 127 127 128 122 120 116 106 100 94 91 85 81 85 84 85 90 93 96 98 100 101 101 102 101 99 96 93 91 88 85 88 91 90 88 88 88 90 96 98 102 102 100 99 96 94 93 93 92 92 91 88 87 87 86 84 85 89 89 87 86 86 85 84 83 83 83 84 85 85 85 85 86 85 84
154 156 155 153 151 146 142 141 141 139 138 136 136 132 126 125 122 114 107 99 94 90 82 84 86 87 92 94 97 98 99 101 102 103 103 101 99 94 91 91 91 95 96 94 92 89 87 92 99 99 101 101 99 97 95 97 98 97 94 92 92 92 93 93 93 90 88 89 90 89 87 87 88 88 87 86 87 87 85 84 84 84 83 83 84
154 156 159 157 153 151 146 143 143 143 145 144 141 136 130 125 125 120 111 103 97 96 88 85 88 90 95 98 99 99 100 101 102 103 103 101 102 97 94 95 95 94 92 91 90 88 88 95 100 99 102 103 100 97 94 96 100 100 100 100 100 100 99 99 99 97 94 93 92 91 90 90 93 94 92 91 90 87 83 82 82 81 80 79 80
155 156 160 159 155 156 150 144 143 146 151 149 145 140 134 127 126 123 114 107 102 100 95 92 91 94 99 101 103 102 101 103 103 103 103 102 101 99 99 100 96 95 94 91 90 90 90 96 99 99 105 105 102 98 94 96 99 101 104 106 106 106 105 103 103 102 101 100 97 97 98 97 97 97 94 93 92 90 85 83 83 81 81 79 78
159 157 160 160 157 159 155 148 144 147 153 152 150 145 138 132 130 127 120 116 110 103 98 96 93 95 101 105 108 108 106 105 106 106 107 105 103 103 103 103 100 99 99 95 93 93 92 96 98 102 108 107 105 101 96 96 99 101 105 107 107 108 109 108 106 106 105 104 102 102 104 101 98 97 96 94 92 91 88 87 86 85 84 81 77
160 160 162 161 159 161 160 152 147 148 151 151 152 149 141 136 133 133 131 125 117 109 101 97 96 97 101 107 111 114 112 109 109 110 109 108 108 107 105 104 103 103 102 98 97 95 95 97 99 107 111 108 107 104 100 99 100 102 105 107 106 107 111 110 108 108 107 105 103 102 103 100 98 98 96 95 92 91 90 88 87 86 82 77 74
160 161 163 164 162 163 161 154 150 148 147 148 151 150 145 139 136 139 138 131 123 116 108 100 100 99 103 107 111 118 118 114 111 114 118 117 114 110 107 105 104 104 103 102 101 101 101 100 104 113 113 109 107 105 104 104 105 106 107 108 106 106 110 111 110 110 109 105 103 102 101 99 99 98 96 95 94 93 91 88 84 80 76 73 75
162 161 165 167 164 164 162 157 154 152 149 147 151 152 150 144 141 146 144 137 129 122 116 109 105 102 105 109 113 120 123 120 115 119 126 123 118 113 110 107 106 108 111 112 108 108 107 103 111 118 116 112 108 105 104 105 108 110 110 111 110 107 106 108 108 108 108 105 103 102 100 100 101 99 97 94 92 91 88 85 82 79 75 75 79
164 163 168 169 167 167 163 160 159 157 152 149 153 156 156 150 147 152 149 143 136 129 122 116 112 107 109 112 116 123 128 128 122 123 127 124 121 118 115 112 112 114 120 121 112 112 110 110 120 123 119 116 109 106 105 106 109 111 113 113 112 108 104 103 103 103 104 104 104 103 102 102 101 100 97 93 92 89 87 84 81 81 82 81 83
166 165 170 171 170 170 166 164 164 162 158 154 156 158 160 156 154 157 153 149 143 136 132 125 119 113 111 114 118 122 130 133 130 129 128 127 125 121 120 118 118 116 118 119 112 115 116 119 127 126 121 118 114 112 110 108 108 110 113 113 114 112 106 104 102 100 102 103 104 102 102 102 102 100 96 93 92 90 89 87 83 84 87 86 87
170 169 172 175 173 173 171 168 167 167 165 161 159 160 164 162 161 162 158 155 150 144 144 137 127 120 113 114 119 122 128 134 135 133 132 133 131 128 127 125 124 119 120 121 115 117 119 122 128 126 122 120 119 118 113 111 111 113 116 117 117 116 113 110 104 101 100 100 102 102 101 100 100 97 95 94 92 90 89 89 88 86 86 85 86
171 173 174 178 178 176 174 172 173 173 172 168 165 164 167 168 166 166 164 162 159 155 152 143 133 127 117 116 121 124 127 133 136 136 137 139 137 135 134 131 128 125 126 127 120 116 116 122 127 126 124 124 123 119 114 113 115 117 120 121 121 121 120 116 112 108 104 100 98 100 102 103 103 99 97 96 93 91 90 90 89 87 85 84 83
170 176 177 180 183 181 178 178 178 178 178 174 171 169 169 171 171 170 170 170 169 165 159 149 142 135 128 124 125 127 128 131 136 137 138 140 139 138 138 134 129 128 128 127 123 116 115 123 127 127 129 128 124 120 117 116 119 122 124 124 125 125 122 119 118 116 113 110 104 101 102 104 104 101 99 99 97 95 92 89 88 87 86 85 84
171 178 181 181 184 186 183 183 184 183 183 180 178 177 172 172 175 175 176 177 176 173 167 160 156 149 142 139 135 135 134 134 135 137 139 141 142 141 139 134 131 131 126 124 122 116 119 125 126 127 133 132 126 123 121 121 123 125 127 129 129 126 122 119 117 116 116 118 118 114 110 108 105 102 102 100 97 95 93 91 90 89 88 86 84
172 179 184 184 185 188 188 187 189 188 187 185 185 184 179 176 178 180 181 183 181 180 176 171 168 161 154 152 149 146 142 141 139 140 143 144 145 143 142 138 137 134 126 124 121 119 124 129 129 132 137 135 129 126 125 127 128 129 132 133 131 127 125 122 119 116 115 115 118 119 117 113 109 108 106 102 99 97 96 94 92 89 88 86 86
174 180 185 188 187 188 192 191 191 192 191 190 190 190 188 183 183 186 185 186 186 185 183 178 176 168 162 162 159 155 151 150 148 148 149 148 147 146 145 142 140 136 131 129 124 126 132 134 134 137 142 142 134 128 128 132 134 136 137 136 133 131 128 125 123 121 119 117 116 115 115 114 112 111 107 103 101 99 98 97 94 92 90 88 87
180 181 184 188 190 190 193 193 192 195 193 193 194 194 195 192 190 191 190 190 190 190 188 184 182 172 165 170 166 160 161 161 157 158 157 155 154 153 152 149 147 143 140 136 133 136 140 140 141 144 147 148 142 132 131 132 135 139 140 140 138 135 131 127 127 126 124 123 120 120 119 118 116 112 108 106 102 99 98 97 96 95 94 91 89
186 185 185 187 191 192 192 192 192 197 197 196 197 197 197 197 196 196 194 195 195 194 192 188 185 177 171 177 175 167 168 169 167 167 165 164 162 160 159 157 154 151 149 146 143 146 148 149 150 151 152 154 149 140 136 135 135 138 139 141 141 138 134 131 131 129 127 124 122 126 126 123 120 117 114 111 106 103 102 100 98 96 95 92 91
193 193 193 190 192 193 193 191 191 197 200 199 199 198 198 199 199 199 198 199 200 198 196 193 188 181 177 183 185 179 177 176 175 174 172 172 169 167 164 162 160 157 158 157 154 157 157 157 158 159 160 160 156 149 144 140 138 140 139 140 141 139 137 136 135 132 131 128 128 131 131 126 122 119 119 116 111 110 108 104 101 97 94 92 92
196 200 200 196 193 194 195 194 193 197 200 199 198 197 198 200 201 201 201 202 203 202 201 198 191 184 182 187 192 191 187 183 181 180 178 177 174 172 169 167 165 163 164 165 163 164 163 162 163 166 167 167 163 158 154 147 144 146 144 141 140 139 138 138 138 135 134 131 130 130 129 127 124 122 122 120 116 115 114 109 103 100 97 95 93
198 201 203 201 198 197 196 195 197 198 199 199 198 198 198 199 202 203 204 205 205 206 204 202 196 187 187 193 196 196 194 191 188 184 183 181 179 176 173 171 170 169 168 168 168 168 168 168 169 170 170 170 167 164 162 156 151 152 150 144 140 138 136 136 136 135 136 132 127 125 122 121 122 123 122 118 113 112 111 106 103 102 100 98 95
202 203 204 204 203 201 198 195 197 199 200 201 199 199 199 198 202 203 205 206 207 208 207 205 201 192 192 199 201 200 199 197 193 188 187 184 182 179 177 175 174 173 171 171 174 173 173 174 175 174 172 170 168 167 166 161 156 155 153 147 141 139 136 134 134 133 133 132 127 125 123 120 117 116 114 111 109 109 108 106 106 103 100 98 96
208 207 207 208 207 204 201 198 199 202 202 202 201 200 199 199 202 204 205 207 207 209 209 207 206 199 197 201 205 205 204 202 198 192 191 188 185 184 182 179 178 176 175 176 179 181 180 181 181 177 173 172 169 169 169 165 159 157 156 151 146 146 143 140 138 134 132 131 129 127 126 123 120 114 109 109 110 112 113 112 111 107 103 101 97
209 209 210 211 210 207 206 201 200 204 203 203 203 201 201 201 203 205 206 207 208 209 210 209 209 206 202 203 206 207 207 206 202 197 194 190 189 189 186 183 181 180 180 182 186 190 188 185 184 179 176 173 170 171 173 170 163 160 161 156 151 152 151 149 147 142 138 135 133 131 129 127 126 122 115 113 115 117 117 115 113 109 106 103 100
209 210 212 212 211 211 210 204 201 205 205 204 205 204 205 205 205 206 206 207 208 208 211 210 210 210 207 205 205 207 207 206 205 204 198 193 193 193 191 189 187 185 185 187 191 196 193 185 184 182 179 177 173 172 176 176 169 165 166 162 158 157 156 156 154 150 148 145 140 139 137 135 135 132 124 119 120 124 124 120 117 114 109 106 103
211 212 212 212 212 212 210 205 202 205 208 207 208 208 209 209 207 208 207 206 208 210 211 212 211 211 210 208 208 208 207 205 206 206 202 197 197 198 197 196 195 193 193 194 195 196 192 185 183 184 183 182 177 174 176 178 174 170 169 167 164 162 161 160 159 156 155 152 148 147 146 145 144 140 133 129 125 124 127 127 122 118 115 112 108
212 211 211 212 213 213 209 205 202 205 208 210 211 212 214 213 211 210 209 207 208 211 213 214 213 212 213 212 211 210 209 207 206 206 204 200 200 202 202 202 202 200 199 201 200 195 191 187 186 187 186 185 181 178 179 177 174 173 171 170 169 167 166 166 165 163 161 159 156 152 149 149 147 145 142 138 133 125 123 122 120 120 120 117 113
211 210 211 212 212 212 209 206 205 205 208 210 213 216 217 217 215 214 213 213 213 215 216 217 216 214 214 214 215 214 212 209 208 207 204 201 202 204 204 203 204 204 203 205 204 196 192 191 191 189 186 185 184 181 181 178 174 174 172 171 171 170 170 171 171 170 170 169 166 160 155 153 151 151 151 148 143 136 130 124 117 116 119 121 119
211 212 212 211 210 210 209 209 208 207 208 210 212 215 218 217 217 215 214 215 217 220 221 220 220 218 216 216 217 217 215 213 211 209 207 204 203 204 205 205 204 204 204 206 205 199 194 193 194 194 189 184 183 180 180 179 175 173 173 173 173 173 174 175 176 176 176 176 173 168 162 159 156 156 156 155 153 150 147 141 132 124 118 117 119
211 212 212 209 208 209 209 211 211 209 209 210 211 213 215 216 216 214 213 214 216 219 220 221 222 221 219 219 218 217 217 217 216 213 210 208 205 205 206 205 204 204 206 207 206 203 199 195 194 196 195 188 183 179 176 175 173 171 172 174 174 175 176 177 179 181 181 182 179 174 170 167 165 164 165 166 166 164 163 160 152 142 128 118 118
212 212 213 212 210 209 210 212 212 211 211 211 210 212 213 214 215 215 215 216 217 218 219 220 222 222 222 221 220 218 217 219 218 215 213 213 210 208 208 206 205 205 206 207 207 204 201 199 194 193 197 193 185 180 175 171 169 167 167 171 174 176 178 180 182 185 185 187 186 182 179 178 178 179 181 183 181 179 176 174 173 165 145 131 125
214 213 214 213 211 211 211 212 212 212 213 212 211 211 211 212 214 215 219 221 221 219 218 221 222 222 223 223 223 220 218 218 218 217 217 217 214 210 210 208 206 206 206 205 205 202 199 198 195 191 192 192 189 183 176 169 164 163 162 163 170 176 179 181 185 188 189 190 191 189 188 189 190 191 193 193 191 188 185 182 183 182 168 152 144
215 213 212 211 211 211 211 212 214 215 214 212 211 211 210 210 211 213 217 220 220 220 220 222 223 223 222 223 224 222 220 219 219 221 221 221 218 213 211 209 208 206 204 203 203 202 200 198 196 193 190 187 186 183 178 171 162 154 154 158 165 174 180 184 188 191 194 195 193 193 196 198 198 198 200 199 196 194 192 189 187 187 186 179 173
212 212 210 210 211 211 211 212 214 214 212 212 211 210 210 210 210 213 216 216 217 220 223 224 224 224 224 224 224 224 224 222 221 223 223 222 220 217 214 211 208 206 205 206 207 207 204 201 198 194 191 185 181 181 181 174 161 147 146 152 158 169 179 188 194 196 200 201 199 200 203 203 203 203 204 204 202 201 199 197 195 194 193 193 192
209 210 210 211 211 210 211 213 213 212 212 213 212 211 212 212 212 215 217 217 218 220 223 223 222 222 224 225 225 226 227 226 224 223 222 220 218 217 216 212 209 208 207 208 209 209 206 202 196 190 189 187 184 182 180 174 166 159 154 145 142 165 183 195 199 201 205 206 204 205 205 205 204 205 206 207 207 206 205 203 200 199 197 195 195
210 209 211 211 209 209 212 215 214 213 214 214 213 213 214 214 215 217 218 219 220 220 222 223 222 221 222 224 226 227 228 229 227 226 225 222 219 220 219 215 211 210 207 205 205 205 202 200 197 192 188 188 187 186 186 184 176 163 153 148 158 161 186 208 204 206 209 207 206 207 206 207 206 206 208 210 211 211 210 209 205 202 202 200 198
208 208 210 210 209 210 212 214 215 215 214 214 215 215 215 215 217 220 221 222 222 221 222 224 225 224 223 224 226 228 229 229 228 226 227 227 225 223 222 218 214 212 208 205 205 205 203 199 197 194 188 184 184 188 191 193 187 172 153 120 153 155 221 209 195 203 209 207 210 211 209 208 208 207 209 211 213 214 213 211 210 208 206 205 205
207 209 210 211 211 212 214 215 216 216 215 215 215 215 215 215 216 219 221 223 223 222 222 223 225 225 226 226 226 227 228 229 230 230 229 228 226 222 219 217 216 214 211 209 211 211 209 204 200 197 194 190 188 189 192 196 199 191 176 149 141 177 250 178 174 197 208 207 213 214 214 213 212 211 211 213 214 213 213 212 212 213 213 211 210
209 212 213 213 214 215 216 217 218 218 218 217 217 216 216 216 214 212 213 214 216 218 220 221 222 223 226 228 228 229 229 228 229 231 231 229 228 226 223 220 218 216 211 211 214 213 210 209 206 203 201 201 197 192 194 199 205 203 194 189 198 223 196 155 150 187 205 208 214 214 216 216 215 215 214 214 215 213 212 212 213 216 219 219 215
212 214 215 215 216 218 219 219 220 220 220 219 218 217 217 217 216 215 214 214 215 219 221 223 224 224 227 229 230 231 230 228 226 227 229 227 225 226 225 222 220 217 215 216 216 213 212 212 211 208 206 205 202 198 198 199 204 210 209 211 226 237 207 174 166 149 170 210 214 211 217 217 215 217 217 217 217 214 212 212 214 217 221 223 222
214 214 215 216 217 220 221 221 221 221 221 220 219 218 217 217 217 217 218 219 222 225 226 226 228 228 229 231 232 232 231 230 227 226 229 228 225 223 223 220 219 219 219 219 215 212 214 215 212 210 207 205 205 206 204 199 201 211 213 215 229 231 209 197 192 179 147 177 203 207 215 216 217 218 217 220 220 217 214 215 216 218 222 224 224
217 217 218 219 220 221 221 221 221 221 221 220 219 219 219 219 218 218 220 223 226 229 230 230 230 229 230 231 232 232 231 231 229 225 226 228 226 225 225 224 221 219 220 220 218 217 221 219 213 209 207 207 210 211 210 205 206 212 211 210 216 208 194 196 194 185 163 144 174 200 204 204 215 219 216 218 221 222 218 218 220 220 223 227 228
220 222 222 222 221 220 219 219 220 220 220 220 219 219 219 220 220 220 221 223 225 227 230 232 231 229 229 229 230 231 232 232 231 227 226 227 225 221 223 225 223 219 219 220 221 223 223 220 216 213 211 212 213 213 214 212 212 214 211 205 200 187 181 185 190 187 174 157 169 188 192 193 203 212 212 213 217 221 219 217 221 222 223 227 231
219 221 221 221 220 218 217 217 219 219 219 219 218 219 219 220 222 223 223 225 225 225 227 229 230 228 228 229 231 233 233 233 233 230 228 229 228 222 220 223 224 223 222 222 222 224 223 220 218 216 215 215 216 216 215 216 215 214 214 208 201 195 193 193 193 191 180 165 162 174 191 195 201 205 206 211 215 219 220 219 220 223 225 226 231